• Join FlightAware (Why Join?)
  • Login
  • US Flag 
03:40PM EST


 

Airport Tracker/Info


-or-


 

Live Flight TrackerFlight Track Log ✈ N400PU ✈ 15-May-2013 ✈ KLAF - KCID

Flight Track Log - Related Links

Times and Time Zones

All times are in EDT time to prevent confusion due to time zone crossing. See the N400PU flight status page for this flight to view local times or setup timezone preferences in your user account.

Time Position Orientation Groundspeed Altitude Reporting Facility
EDT Latitude Longitude Course Direction KTS MPH feet Rate Location/Type
02:59PM 40.4178 -86.9719 301° West 148 170 1,900  Level Chicago Center
03:00PM 40.4339 -87.0075 301° West 173 199 3,200 2,280 Climbing Chicago Center
03:01PM 40.4564 -87.0719 295° West 195 224 5,700 2,544 Climbing Chicago Center
03:02PM 40.4783 -87.1556 289° West 226 260 8,500 2,323 Climbing Chicago Center
03:03PM 40.4997 -87.2339 290° West 231 266 10,500 2,081 Climbing Chicago Center
03:04PM 40.5256 -87.3200 292° West 253 291 12,800 2,516 Climbing Chicago Center
03:05PM 40.5561 -87.4269 291° West 260 299 15,700 2,032 Climbing Chicago Center
03:06PM 40.5833 -87.5158 292° West 262 302 17,000 629 Climbing Chicago Center
03:07PM 40.6131 -87.6244 290° West 306 352 17,000  Level Chicago Center
03:08PM 40.6481 -87.7417 292° West 338 389 17,000  Level Chicago Center
03:09PM 40.6831 -87.8636 291° West 354 407 17,000  Level Chicago Center
03:10PM 40.7200 -87.9925 291° West 372 428 17,000  Level Chicago Center
03:11PM 40.7639 -88.1447 291° West 373 429 17,000 629 Level Chicago Center
03:12PM 40.7992 -88.2697 290° West 368 423 18,300 1,548 Climbing Chicago Center
03:13PM 40.8306 -88.3839 290° West 341 392 20,200 1,440 Climbing Chicago Center
03:14PM 40.8608 -88.4897 291° West 315 362 21,300 1,152 Climbing Chicago Center
03:15PM 40.8906 -88.5961 290° West 311 358 22,600 1,306 Climbing Chicago Center
03:17PM 40.9256 -88.7217 290° West 306 352 24,000 677 Climbing Chicago Center
03:18PM 40.9553 -88.8331 289° West 319 367 24,000  Level Chicago Center
03:19PM 40.9892 -88.9572 290° West 347 399 24,000 774 Level Chicago Center
03:20PM 41.0228 -89.0764 291° West 352 405 25,600 968 Climbing Chicago Center
03:21PM 41.0642 -89.1819 298° West 332 382 26,000 194 Climbing Chicago Center
03:22PM 41.1169 -89.2978 301° West 344 396 26,000  Level Chicago Center
03:23PM 41.1761 -89.4425 299° West 361 415 26,000  Level Chicago Center
03:24PM 41.2178 -89.5739 293° West 378 435 26,000  Level Chicago Center
03:25PM 41.2606 -89.7019 294° West 383 441 26,000 -387 Level Chicago Center
03:26PM 41.3036 -89.8344 293° West 389 448 25,200 -912 Descending Chicago Center
03:27PM 41.3472 -89.9708 293° West 398 458 24,100 -1,008 Descending Chicago Center
03:28PM 41.3903 -90.1067 293° West 401 461 23,100 -1,548 Descending Chicago Center
03:29PM 41.4414 -90.2694 293° West 399 459 20,900 -2,032 Descending Chicago Center
03:30PM 41.4814 -90.3953 293° West 378 435 18,900 -1,984 Descending Chicago Center
03:31PM 41.5192 -90.5181 292° West 365 420 16,800 -1,935 Descending Chicago Center
03:32PM 41.5558 -90.6331 293° West 356 410 14,900 -2,129 Descending Chicago Center
03:33PM 41.5997 -90.7761 292° West 351 404 12,400 -1,887 Descending Chicago Center
03:34PM 41.6361 -90.8939 292° West 347 399 11,000 -677 Descending Chicago Center
03:35PM 41.6681 -90.9994 292° West 315 362 11,000  Level Chicago Center
03:36PM 41.7014 -91.1064 293° West 313 360 11,000 -581 Level Chicago Center
03:37PM 41.7311 -91.2044 292° West 285 328 9,800 -1,742 Descending Chicago Center
03:38PM 41.7617 -91.3139 291° West 265 305 7,400 -1,790 Descending Chicago Center
03:39PM 41.7717 -91.4156 278° West 275 316 6,100 -968 Descending Chicago Center
03:40PM 41.7808 -91.5119 277° West 267 307 5,400 -1,065 Descending Chicago Center
03:41PM 41.7911 -91.6064 278° West 263 303 3,900 -1,403 Descending Chicago Center
03:42PM 41.8081 -91.6964 284° West 259 298 2,500 -823 Descending Chicago Center
03:43PM 41.8358 -91.7742 296° West 230 265 2,200 -290 Descending Chicago Center
03:44PM 41.8778 -91.7764 358° North 211 243 1,900 -290 Descending Chicago Center
03:46PM 41.8847 -91.7108 312° West  Level Estimated
03:53PM 41.8847 -91.7108 312° West  Level Estimated
03:54PM 41.8847 -91.7108 312° West  Level Estimated